Temperature
5 5 5 5 5 5 5 5 5 5 5 5 5 5 5 5 5 5 5 5 5 5 5 4 4 4 4 4 4 4 4 4 3 4 4 4 4 4 4 4 4 4 4
5 5 5 5 5 5 5 5 5 5 5 4 4 4 4 4 4 4 4 4 4 4 4 4 4 4 4 4 3 3 3 3 3 3 3 3 3 3 3 3 3 3 3
5 5 5 5 5 5 5 5 4 4 4 4 4 4 4 4 4 4 4 4 4 4 4 4 4 3 3 3 3 3 3 3 3 2 3 3 3 3 3 3 3 3 3
5 5 5 5 5 5 5 4 4 4 4 4 4 4 4 4 4 4 4 4 3 3 3 3 3 3 3 3 3 2 2 2 2 2 2 2 2 2 2 2 2 2 2
5 5 5 4 4 4 4 4 4 4 4 3 3 3 3 3 3 3 3 3 3 3 3 3 3 3 3 2 2 2 2 2 2 1 1 1 2 2 2 2 1 1 1
5 4 4 4 4 4 4 4 4 3 3 3 3 3 3 3 3 3 3 3 3 3 3 2 2 2 2 2 2 2 2 1 1 1 1 1 1 1 1 1 1 0 0
4 4 4 4 4 4 3 3 3 3 3 3 3 3 3 3 2 2 2 2 2 2 2 2 2 2 2 2 1 1 1 1 1 0 0 0 0 0 0 0 -0 -0 -0
4 4 4 3 3 3 3 3 3 3 3 3 3 2 2 2 2 2 2 2 2 2 2 2 2 2 1 1 1 1 1 1 0 0 0 0 -0 -0 -0 -1 -1 -1 -1
4 3 3 3 3 3 3 3 2 2 2 2 2 2 2 2 2 2 1 1 1 1 1 1 1 1 1 0 0 0 0 0 0 -0 -0 -0 -1 -1 -1 -1 -1 -1 -1
3 3 3 3 2 2 2 2 2 2 2 2 2 2 2 2 1 1 1 1 1 1 1 1 0 0 0 -0 -0 -0 -0 -0 -1 -1 -1 -1 -1 -1 -1 -1 -1 -2 -2
3 3 2 2 2 2 2 2 2 2 2 1 1 1 1 1 1 1 0 0 -0 -0 -0 0 -0 -0 -1 -1 -1 -1 -1 -1 -1 -1 -1 -1 -1 -1 -1 -2 -2 -2 -2
2 2 2 2 2 2 2 1 1 1 1 1 1 1 1 1 0 0 -0 -0 -1 -1 -1 -1 -1 -1 -1 -1 -1 -1 -1 -2 -2 -2 -2 -2 -2 -2 -2 -2 -2 -3 -3
2 2 2 2 1 1 1 1 1 1 0 0 0 0 0 -0 -0 -0 -1 -1 -1 -1 -1 -1 -1 -1 -2 -1 -2 -2 -2 -2 -2 -2 -2 -2 -2 -2 -3 -3 -3 -3 -3
1 1 1 1 1 1 0 0 0 0 -0 -0 -0 -1 -1 -1 -1 -1 -1 -1 -1 -2 -2 -2 -2 -2 -2 -2 -2 -2 -2 -2 -2 -2 -2 -3 -3 -3 -3 -4 -4 -4 -4
0 0 0 0 0 -0 -0 -0 -0 -0 -1 -1 -1 -1 -2 -2 -2 -2 -2 -2 -2 -2 -2 -2 -2 -2 -2 -2 -3 -3 -3 -3 -3 -3 -3 -3 -4 -4 -4 -4 -4 -4 -4
-0 -0 -0 -0 -0 -1 -1 -1 -1 -1 -1 -1 -2 -2 -2 -2 -2 -2 -2 -2 -2 -3 -3 -3 -3 -3 -3 -3 -3 -3 -4 -4 -4 -4 -4 -4 -4 -4 -4 -4 -5 -5 -5
-1 -1 -1 -1 -1 -1 -1 -1 -1 -1 -1 -2 -2 -2 -2 -2 -3 -3 -3 -3 -3 -3 -3 -3 -3 -3 -4 -4 -4 -4 -4 -4 -4 -4 -4 -4 -4 -4 -5 -5 -5 -5 -5
-1 -1 -1 -1 -1 -2 -2 -2 -2 -2 -2 -2 -2 -2 -3 -3 -3 -3 -3 -3 -3 -3 -4 -4 -4 -4 -4 -4 -4 -5 -5 -5 -5 -5 -5 -5 -5 -5 -5 -5 -5 -5 -5
-2 -2 -2 -2 -2 -2 -2 -2 -2 -3 -3 -3 -3 -3 -3 -3 -3 -3 -4 -4 -4 -4 -4 -4 -4 -4 -5 -5 -5 -5 -5 -5 -5 -5 -5 -5 -5 -6 -6 -6 -6 -6 -6
-2 -2 -2 -2 -3 -3 -3 -3 -3 -3 -3 -3 -3 -3 -3 -4 -4 -4 -4 -4 -4 -4 -5 -5 -5 -5 -5 -5 -5 -5 -5 -5 -6 -6 -6 -6 -6 -6 -6 -6 -6 -6 -6
-3 -3 -3 -3 -3 -3 -3 -3 -4 -4 -4 -4 -4 -4 -4 -4 -4 -4 -5 -5 -5 -5 -5 -5 -5 -5 -5 -5 -5 -6 -6 -6 -6 -6 -6 -6 -6 -6 -6 -7 -7 -7 -7
-3 -3 -4 -4 -4 -4 -4 -4 -4 -4 -4 -4 -4 -5 -5 -5 -5 -5 -5 -5 -5 -5 -6 -6 -6 -6 -6 -6 -6 -6 -6 -6 -6 -6 -7 -7 -7 -7 -7 -7 -7 -7 -7
-4 -4 -4 -5 -5 -5 -5 -5 -5 -5 -5 -5 -5 -5 -5 -6 -6 -6 -6 -6 -6 -6 -6 -6 -6 -6 -6 -6 -6 -6 -6 -6 -7 -7 -7 -7 -7 -7 -7 -7 -7 -8 -8
-5 -5 -5 -5 -5 -5 -5 -5 -5 -5 -5 -6 -6 -6 -6 -6 -6 -6 -6 -6 -6 -6 -6 -6 -7 -7 -7 -7 -7 -7 -7 -7 -7 -7 -7 -7 -8 -8 -8 -8 -8 -8 -8
-6 -6 -6 -6 -6 -6 -6 -6 -6 -6 -6 -6 -6 -6 -7 -7 -7 -7 -7 -7 -7 -7 -7 -7 -7 -7 -7 -7 -7 -7 -7 -7 -7 -7 -7 -8 -8 -8 -8 -8 -8 -8 -9
-6 -6 -6 -6 -6 -6 -6 -7 -7 -7 -7 -7 -7 -7 -7 -7 -7 -7 -7 -7 -7 -7 -7 -7 -7 -7 -7 -7 -7 -7 -7 -7 -7 -8 -8 -8 -8 -8 -8 -9 -9 -9 -9
Wind_Speed
2 2 2 2 2 2 2 3 2 2 2 3 3 2 2 2 2 3 2 3 3 2 2 3 3 3 3 3 3 3 3 3 5 4 3 2 3 4 4 6 7 8 9
2 2 2 2 2 1 1 2 2 2 2 2 2 2 2 2 2 3 3 3 4 4 4 3 4 3 3 3 3 4 4 4 5 6 4 3 4 4 4 4 6 7 8
2 2 2 2 2 2 1 1 2 2 2 2 2 2 2 2 3 3 4 4 4 4 4 5 5 4 5 4 4 4 4 4 4 4 5 3 3 2 3 4 4 5 7
1 2 2 2 2 2 2 2 2 2 2 2 2 3 3 3 3 3 3 4 4 4 5 5 5 6 6 5 5 5 4 4 3 4 4 4 3 2 2 3 4 3 4
1 1 1 1 1 1 1 1 1 2 2 2 2 2 2 2 3 3 4 4 4 4 4 5 5 7 8 7 6 6 5 4 4 4 4 4 4 3 4 3 4 3 4
1 1 1 1 1 1 1 1 1 1 1 2 2 3 3 3 5 6 4 4 5 5 5 5 5 6 8 9 10 9 8 6 6 5 5 6 6 5 3 3 3 3 4
1 1 1 1 1 1 1 1 1 1 1 2 3 3 4 5 6 6 6 4 4 5 5 5 4 5 6 5 8 9 9 10 10 7 7 7 6 6 4 4 4 5 6
1 1 1 1 1 1 1 1 2 2 2 2 3 3 4 5 6 6 6 3 4 4 5 5 6 5 6 6 5 6 6 7 8 7 7 7 6 5 6 6 5 3 3
1 1 1 1 1 1 2 2 2 2 2 3 3 3 4 5 6 6 5 3 4 5 5 5 6 6 9 9 6 6 6 6 8 10 10 9 9 9 6 2 2 2 4
2 2 1 1 2 2 3 2 2 2 3 2 3 3 4 4 6 6 5 2 3 4 4 5 7 8 9 9 6 6 6 6 4 4 5 6 6 7 8 6 4 4 3
1 1 0 1 2 2 2 1 1 2 2 2 3 3 3 4 6 6 5 3 3 4 4 4 4 8 9 9 8 6 7 5 3 4 3 3 3 3 4 4 4 3 4
0 0 1 1 1 1 1 2 1 1 1 2 2 3 3 4 5 5 6 6 5 4 4 3 4 7 8 8 6 6 7 4 2 2 3 3 3 3 2 3 3 3 4
1 1 1 2 2 1 1 1 1 1 1 2 2 3 3 3 4 6 6 7 7 4 3 5 6 7 6 4 5 5 4 2 2 3 4 3 3 2 1 1 1 1 2
0 1 1 1 2 2 2 1 1 2 2 2 3 3 3 3 3 3 3 4 5 4 3 4 5 5 3 3 3 3 2 3 3 3 3 2 1 1 1 1 1 1 1
0 1 1 1 1 1 2 2 2 3 3 3 3 3 3 4 5 6 4 3 3 3 3 1 1 1 1 1 1 1 1 1 2 1 2 1 1 2 2 1 1 1 2
1 1 1 1 1 1 2 3 4 4 5 6 5 5 4 6 7 7 6 6 6 4 3 2 2 2 2 2 2 2 2 2 2 2 2 2 2 2 2 1 1 2 2
1 1 1 1 1 1 2 2 3 4 5 5 4 5 5 6 6 6 6 6 5 4 2 2 2 3 3 3 3 3 3 2 2 2 2 2 2 2 2 2 2 2 2
1 2 2 2 2 2 2 2 2 3 4 3 4 5 6 6 6 6 6 4 3 2 2 2 3 3 3 3 3 3 2 2 2 2 2 2 2 2 2 2 2 2 2
1 1 1 2 2 2 2 2 2 3 3 3 3 4 5 5 5 5 4 2 2 2 2 3 3 3 3 3 3 2 2 2 2 2 2 2 2 2 2 2 2 3 2
2 3 3 2 2 2 2 2 3 3 3 3 3 3 3 3 3 3 2 2 2 3 3 3 3 3 3 2 2 2 2 2 2 2 2 2 2 2 2 3 3 2 2
2 2 3 3 2 2 3 3 3 3 3 3 4 5 6 3 3 3 3 3 3 3 3 3 3 3 2 2 2 2 2 2 2 2 2 2 2 2 2 2 3 2 2
1 2 2 2 3 3 3 3 3 3 3 4 4 5 6 3 3 3 3 3 3 2 2 3 3 3 2 2 2 2 2 2 2 2 2 2 2 2 2 2 2 2 2
1 2 3 3 3 4 4 3 3 3 3 3 4 4 3 3 2 2 2 2 2 2 2 2 3 3 3 3 3 3 3 3 3 3 3 3 3 2 2 2 2 2 2
2 2 3 3 3 3 3 3 3 3 3 3 3 3 3 3 3 3 2 2 2 3 3 3 3 3 4 4 4 4 4 4 4 4 4 3 3 2 2 2 2 3 2
2 2 2 3 3 3 3 3 3 3 3 3 3 3 3 3 3 3 2 2 3 3 3 4 3 4 4 5 5 5 5 5 4 3 3 3 3 3 2 2 2 2 2
2 2 2 2 3 3 3 3 3 3 3 3 3 3 3 3 3 3 3 3 3 3 3 3 4 4 5 5 6 6 5 5 4 3 2 2 2 2 2 2 2 2 2
Wind_Direction
206 203 196 205 190 168 171 174 172 176 165 163 174 175 177 182 180 180 188 190 197 213 218 212 222 217 214 215 212 212 215 215 245 268 257 258 242 250 266 264 262 263 267
206 189 197 190 161 164 186 179 163 170 174 176 171 171 192 196 193 192 199 204 207 214 223 224 233 229 226 222 219 219 222 221 229 257 267 255 248 249 251 258 265 264 266
193 182 185 177 159 177 199 196 180 174 175 185 178 192 208 212 213 213 210 216 221 222 222 225 231 223 234 234 229 228 229 232 230 244 264 261 258 258 264 271 273 266 271
185 180 184 193 193 199 196 189 194 183 180 195 204 212 216 218 222 223 222 229 233 232 228 226 226 224 229 231 234 231 227 228 230 244 261 267 263 258 249 265 278 264 269
177 179 200 206 193 187 186 202 207 195 201 205 213 227 231 226 225 223 223 229 232 237 241 238 236 236 235 232 236 229 221 224 226 242 259 269 263 253 251 246 265 282 277
177 192 205 197 201 199 209 210 204 213 213 211 222 228 238 244 250 247 245 231 230 231 240 245 246 243 246 247 248 241 229 226 229 235 248 254 257 251 251 249 261 279 278
199 209 206 206 223 240 241 225 229 230 226 236 241 237 246 253 259 256 252 249 236 237 238 239 250 249 251 243 250 250 244 243 238 233 242 245 246 238 235 245 245 256 263
225 244 238 219 235 264 253 249 255 249 238 245 250 248 254 264 272 271 264 253 245 245 243 237 239 244 244 241 240 244 242 243 243 238 237 243 244 235 230 239 241 256 275
248 261 258 238 234 244 257 263 270 261 261 255 254 251 258 272 276 277 274 251 252 252 248 242 238 239 248 250 244 244 252 254 254 249 249 252 252 250 240 228 228 257 276
253 261 271 250 232 242 250 256 264 259 260 266 273 265 262 269 277 277 276 252 259 261 258 250 251 252 255 252 238 232 245 252 242 250 250 255 251 242 232 219 214 238 266
262 277 307 278 259 259 256 260 270 274 284 282 286 289 274 273 279 275 275 264 252 259 259 258 257 264 263 257 247 233 245 251 232 229 240 245 244 235 230 226 219 223 238
350 353 328 315 305 307 281 293 286 266 286 292 296 299 284 275 278 274 279 283 282 263 264 259 261 271 270 265 255 252 255 253 218 221 236 242 239 239 236 235 236 247 248
38 348 331 336 332 321 280 278 290 273 268 287 286 289 294 291 286 290 289 287 285 278 264 270 276 276 275 266 257 260 250 217 212 232 240 247 241 228 217 233 253 271 305
129 317 328 331 331 334 314 287 275 279 278 281 282 287 296 300 295 294 288 289 289 285 281 279 282 281 278 279 277 264 236 222 229 233 238 240 218 205 221 233 249 243 280
234 288 305 302 297 313 311 295 280 262 255 262 266 272 283 292 290 297 300 294 288 281 299 295 292 298 280 281 278 262 241 233 249 247 237 237 233 230 244 227 228 239 239
255 281 282 289 293 292 309 323 316 296 299 295 284 284 288 288 301 304 307 309 309 311 320 298 282 274 264 263 264 266 254 252 248 238 233 227 225 225 241 246 241 232 241
245 269 277 275 273 280 286 297 316 330 331 322 317 312 306 306 310 311 317 323 320 328 317 292 279 273 270 267 263 260 263 261 243 229 227 222 219 217 220 231 232 238 244
272 276 277 271 272 272 272 277 283 298 316 325 329 326 326 326 323 320 327 338 331 328 302 292 287 279 275 268 262 262 265 261 245 237 229 224 218 219 221 224 226 227 240
293 284 281 280 279 277 276 278 280 282 287 302 317 322 326 326 326 328 335 327 296 296 297 292 286 279 276 275 272 264 255 248 244 236 230 224 220 217 223 225 229 235 244
303 292 299 289 287 289 284 280 280 279 282 287 294 302 315 316 315 320 319 303 291 289 291 290 287 281 277 272 272 270 263 251 243 238 233 229 223 212 215 221 225 228 234
303 300 308 305 290 283 281 279 276 275 278 284 287 289 297 299 294 296 298 296 291 288 288 289 289 287 280 276 267 262 259 255 245 236 233 229 224 227 226 224 226 225 222
296 294 292 285 285 284 284 282 281 279 278 284 291 296 301 304 290 286 289 293 292 288 286 286 284 279 272 264 258 253 250 250 252 245 236 233 231 227 224 221 221 222 215
288 290 293 287 282 288 296 290 288 284 285 288 292 297 303 302 296 292 289 294 299 297 295 289 286 290 291 284 273 253 245 250 247 238 239 236 231 228 224 223 220 219 220
286 287 289 289 290 284 282 284 285 285 289 293 296 297 299 301 298 295 296 301 300 296 294 292 286 284 290 296 293 283 270 267 260 244 231 225 227 227 219 217 220 218 218
301 292 289 289 289 287 287 287 288 291 292 291 292 296 300 303 302 302 303 301 296 291 292 293 289 288 289 293 293 290 281 275 268 248 227 216 209 211 213 213 211 205 209
313 302 298 299 295 292 291 290 290 291 290 291 293 294 296 294 294 297 297 293 293 293 295 294 289 290 293 293 290 288 286 277 264 254 230 201 193 206 205 210 198 197 191
Height
1471 1471 1472 1472 1472 1473 1474 1474 1475 1475 1476 1477 1479 1481 1482 1483 1485 1486 1487 1489 1490 1491 1492 1492 1493 1494 1494 1495 1495 1496 1495 1495 1494 1493 1494 1495 1495 1495 1495 1495 1495 1495 1495
1469 1470 1470 1470 1470 1471 1471 1472 1473 1473 1474 1475 1477 1478 1479 1480 1481 1482 1484 1485 1486 1487 1487 1488 1488 1489 1489 1490 1490 1490 1490 1491 1490 1489 1488 1489 1490 1490 1489 1489 1489 1489 1488
1468 1468 1468 1468 1469 1469 1469 1470 1470 1471 1472 1473 1474 1475 1476 1477 1478 1479 1480 1481 1482 1483 1483 1483 1484 1484 1484 1485 1485 1485 1485 1485 1485 1484 1483 1484 1484 1484 1483 1483 1482 1482 1482
1466 1466 1466 1466 1467 1467 1467 1468 1468 1469 1470 1471 1471 1472 1473 1474 1475 1475 1476 1477 1477 1478 1478 1479 1479 1479 1479 1479 1479 1480 1480 1480 1479 1479 1478 1478 1478 1478 1477 1476 1475 1476 1475
1464 1464 1464 1465 1465 1465 1465 1465 1466 1466 1467 1468 1469 1469 1470 1470 1471 1471 1472 1472 1473 1473 1473 1474 1474 1474 1474 1474 1474 1474 1474 1474 1474 1473 1472 1472 1472 1472 1471 1471 1470 1469 1468
1461 1462 1462 1463 1463 1463 1463 1463 1463 1464 1464 1465 1465 1466 1466 1466 1467 1467 1468 1468 1468 1468 1468 1468 1468 1469 1468 1468 1468 1469 1469 1469 1468 1468 1467 1466 1466 1466 1466 1465 1465 1463 1462
1459 1459 1460 1460 1461 1461 1461 1461 1460 1460 1461 1461 1462 1462 1462 1462 1463 1463 1463 1463 1463 1463 1463 1463 1463 1463 1463 1462 1462 1462 1462 1462 1463 1463 1461 1460 1461 1461 1461 1460 1459 1458 1457
1457 1457 1458 1458 1458 1458 1458 1458 1458 1458 1458 1458 1458 1458 1458 1458 1459 1459 1459 1458 1458 1458 1457 1457 1457 1457 1457 1457 1456 1456 1455 1456 1456 1456 1456 1455 1455 1455 1454 1454 1453 1452 1451
1455 1455 1455 1455 1455 1455 1455 1455 1455 1455 1455 1454 1454 1454 1454 1454 1454 1454 1454 1453 1452 1452 1452 1452 1451 1451 1451 1451 1450 1449 1449 1449 1450 1450 1449 1449 1448 1448 1448 1448 1447 1446 1445
1452 1452 1453 1453 1452 1452 1452 1452 1452 1452 1451 1451 1451 1451 1450 1450 1450 1449 1449 1448 1447 1446 1446 1446 1446 1445 1445 1445 1444 1443 1443 1443 1443 1443 1443 1442 1442 1442 1442 1442 1441 1441 1439
1450 1450 1450 1450 1450 1450 1449 1449 1449 1448 1448 1447 1447 1447 1446 1446 1445 1445 1444 1443 1442 1441 1440 1440 1440 1440 1439 1439 1439 1438 1437 1437 1437 1436 1436 1436 1436 1435 1435 1436 1436 1436 1435
1448 1448 1447 1447 1447 1447 1446 1446 1445 1445 1444 1443 1443 1442 1442 1442 1441 1440 1440 1439 1438 1437 1436 1435 1434 1434 1434 1433 1433 1432 1432 1432 1431 1431 1430 1430 1429 1429 1429 1430 1430 1430 1430
1445 1445 1445 1445 1444 1444 1444 1443 1442 1442 1441 1440 1439 1438 1438 1437 1437 1436 1436 1435 1434 1433 1431 1431 1430 1429 1429 1428 1428 1427 1427 1426 1425 1425 1424 1424 1424 1424 1424 1424 1425 1425 1425
1442 1442 1442 1442 1441 1441 1441 1440 1440 1439 1438 1437 1436 1435 1434 1433 1433 1432 1431 1430 1429 1428 1427 1426 1426 1425 1424 1423 1422 1422 1421 1421 1420 1420 1420 1420 1420 1420 1420 1420 1420 1420 1420
1439 1439 1439 1439 1438 1438 1438 1437 1437 1436 1436 1434 1433 1432 1431 1430 1430 1430 1428 1427 1426 1425 1423 1422 1421 1420 1419 1418 1417 1417 1417 1416 1416 1415 1415 1415 1415 1415 1415 1416 1416 1416 1416
1436 1436 1436 1435 1435 1435 1434 1434 1433 1433 1432 1431 1430 1429 1428 1428 1427 1426 1425 1424 1422 1421 1420 1418 1417 1416 1415 1414 1413 1413 1412 1412 1411 1411 1411 1412 1412 1411 1411 1412 1412 1412 1412
1433 1433 1432 1432 1432 1432 1431 1430 1429 1429 1429 1428 1427 1426 1425 1424 1423 1422 1421 1420 1419 1417 1416 1415 1414 1413 1412 1411 1410 1409 1409 1408 1408 1408 1408 1408 1408 1408 1408 1408 1408 1408 1408
1430 1430 1430 1429 1429 1428 1428 1427 1426 1425 1424 1423 1424 1423 1422 1421 1420 1419 1418 1416 1415 1414 1412 1411 1410 1409 1409 1408 1407 1406 1405 1405 1405 1405 1404 1404 1404 1404 1404 1405 1405 1405 1405
1427 1427 1426 1426 1426 1425 1425 1424 1423 1422 1421 1420 1419 1419 1419 1417 1417 1416 1414 1413 1411 1410 1409 1408 1408 1406 1405 1404 1404 1403 1402 1402 1402 1401 1401 1401 1401 1401 1401 1401 1401 1401 1401
1424 1424 1423 1422 1422 1421 1421 1420 1419 1419 1418 1417 1416 1415 1415 1414 1412 1412 1411 1410 1408 1407 1406 1405 1404 1403 1402 1401 1400 1400 1399 1399 1398 1398 1398 1397 1397 1398 1398 1398 1398 1398 1398
1421 1420 1419 1419 1418 1418 1417 1417 1416 1415 1414 1413 1413 1412 1411 1410 1409 1408 1407 1406 1405 1404 1403 1402 1401 1400 1399 1398 1397 1396 1396 1396 1395 1395 1395 1395 1394 1394 1394 1394 1395 1395 1395
1417 1417 1416 1415 1415 1414 1413 1413 1412 1412 1411 1410 1409 1408 1407 1406 1405 1404 1403 1402 1401 1400 1399 1398 1397 1396 1395 1395 1394 1393 1393 1392 1392 1392 1392 1391 1391 1391 1391 1391 1391 1391 1391
1414 1413 1412 1412 1411 1411 1410 1409 1409 1408 1407 1406 1406 1405 1404 1402 1401 1400 1399 1399 1398 1397 1396 1395 1394 1392 1392 1391 1391 1390 1390 1389 1389 1389 1389 1388 1388 1388 1388 1388 1388 1388 1389
1411 1410 1409 1408 1408 1407 1406 1406 1405 1404 1404 1403 1402 1401 1400 1399 1398 1397 1396 1395 1394 1393 1392 1391 1390 1389 1389 1388 1388 1387 1387 1386 1386 1386 1385 1385 1385 1385 1385 1385 1385 1385 1386
1408 1407 1406 1405 1404 1404 1403 1402 1401 1401 1400 1399 1398 1397 1396 1395 1395 1394 1393 1392 1391 1390 1389 1388 1387 1387 1386 1385 1385 1384 1384 1383 1383 1382 1382 1382 1382 1382 1382 1382 1382 1382 1383
1405 1404 1403 1402 1401 1400 1400 1399 1398 1397 1397 1396 1395 1394 1393 1392 1391 1390 1390 1389 1388 1387 1386 1385 1385 1384 1383 1382 1382 1381 1380 1380 1380 1379 1379 1379 1379 1379 1379 1379 1380 1380 1380